Terminal Aerodrome Forecast
Issued by NWS

Home | Current Version | Previous Version | Text Only | Print | Product List | Glossary On
Versions: 1 2 3 4 5 6 7 8 9 10 11 12 13 14 15 16 17 18 19 20 21 22 23
877
FTUS44 KOUN 111740
TAFGAG
TAF
KGAG 111740Z 1118/1218 03005KT P6SM SCT250
     FM120100 19006KT P6SM SCT250
     FM120900 30008KT P6SM SCT250=

USA.gov is the U.S. government's official web portal to all federal, state and local government web resources and services.